Location: 3 Angels Observatory
(30.5437°N, 88.5068°W)
Time: 08:07:46
(UTC-05:00)

Daily predictions for brighter satellites

Satellite Brightness Start Highest point End
(mag) Time Altitude Azimuth Time Altitude Azimuth Time Altitude Azimuth
Cosmos 1346 Rocket 3.3 19:35:41 10° N 19:39:27 39° E 19:43:13 10° SSE
Helios 1B rocket 2.4 19:36:16 10° NNE 19:40:23 82° ESE 19:44:29 10° S
Cosmos 1697 Rocket 3.0 19:37:50 10° S 19:43:08 43° ESE 19:48:26 10° NE
Resurs 1-3 4.1 19:41:10 10° SE 19:45:15 39° ENE 19:49:21 10° N
Tiangong 1 3.8 19:45:37 10° N 19:46:16 10° N 19:46:56 10° NNE
HJ-1C 3.3 19:48:08 10° SSE 19:51:23 64° ENE 19:54:39 10° N
Cosmos 2123 Rocket 4.1 19:45:52 10° N 19:51:53 53° E 19:57:54 10° SSE
ATLAS 3B CENTAUR R/B 1.2 19:49:49 10° W 19:52:26 32° SSW 19:54:01 12° SE
Delta 2 Rocket 4.2 19:49:15 10° WNW 19:55:04 73° SSW 20:00:19 11° ESE
Cosmos 468 Rocket 4.0 19:56:49 10° S 20:01:48 56° ESE 20:06:48 10° NNE
Cosmos 1934 Rocket 4.4 19:59:00 10° SSW 20:05:05 68° W 20:11:17 10° N
Cosmos 1980 Rocket 2.5 20:02:19 10° S 20:07:35 41° ESE 20:12:53 10° NE
DELTA 2 R/B (1) 4.0 20:04:52 10° WNW 20:10:19 53° NNE 20:14:35 16° E
Helios 1A 3.3 20:07:04 10° S 20:11:12 71° WSW 20:15:23 10° NNW
Resurs 01 Rocket 2.1 20:10:00 10° S 20:14:22 64° WSW 20:18:48 10° NNW
Cosmos 1814 Rocket 4.0 20:10:24 10° S 20:15:40 65° ESE 20:20:57 10° NNE
H-2A R/B 3.3 20:13:02 14° SE 20:16:04 39° ENE 20:19:45 10° N
BREEZE-M DEB (TANK) 4.4 20:07:43 10° NW 20:16:30 39° WSW 20:19:42 10° S
RESURS DK-1 3.8 20:13:59 10° NNE 20:17:06 20° ENE 20:18:10 18° E
FENGYUN 3A 3.7 20:12:49 10° SSE 20:18:02 56° ENE 20:23:15 10° N
Cosmos 1656 4.3 20:12:40 10° SSW 20:18:13 61° WNW 20:23:43 10° NNE
Cosmos 1153 Rocket 4.4 20:12:15 10° S 20:18:23 70° E 20:24:30 10° N
Cosmos 1461 3.6 20:15:32 10° NW 20:19:24 50° WSW 20:23:10 10° S
NOSS 3-4 (A) 4.3 20:14:00 10° NW 20:21:06 65° WSW 20:28:33 10° SSE
CZ-4B DEB 2.7 20:17:54 10° SSE 20:21:09 82° ENE 20:24:27 10° N
NOSS 3-4 (C) 4.3 20:14:07 10° NW 20:21:14 65° WSW 20:28:42 10° SSE
Cosmos 1802 Rocket 4.3 20:30:24 10° SSE 20:36:25 46° E 20:42:30 10° NNE
Cosmos 1500 3.2 20:33:53 10° S 20:37:38 78° W 20:41:25 10° N
Lacrosse 5 2.5 20:35:35 10° NNW 20:40:21 40° NE 20:41:56 31° E
Iridium 4 Rocket 3.0 20:35:54 10° N 20:40:38 76° E 20:44:11 15° S
Fermi 4.4 20:37:18 10° WSW 20:41:10 39° S 20:42:00 35° SSE
Cosmos 1975 4.2 20:37:23 10° SSW 20:41:16 41° W 20:45:10 10° N
Cosmos 2016 Rocket 4.3 20:37:16 18° SSE 20:41:16 40° E 20:46:56 10° NNE
CZ-2D R/B 3.3 20:39:08 16° S 20:42:06 78° WSW 20:46:00 10° NNW
Cosmos 2322 Rocket 3.1 20:43:34 27° E 20:43:34 27° E 20:47:14 10° NE
Cosmos 1825 Rocket 4.4 20:40:36 10° NNE 20:44:13 31° ENE 20:44:13 31° ENE
Cosmos 2227 Rocket 3.3 20:39:20 10° NW 20:44:41 44° WSW 20:49:59 10° S
OTV 4 1.8 20:44:54 10° W 20:47:32 29° SSW 20:47:34 29° SSW
SWAS 4.5 20:43:28 10° S 20:47:39 53° ESE 20:51:52 10° NNE
Cosmos 1340 4.3 20:45:39 10° NNE 20:47:32 21° NE 20:47:32 21° NE
Lacrosse 5 rocket 2.4 20:46:02 10° NW 20:49:22 34° WSW 20:50:50 24° SSW
Envisat 3.9 20:49:38 30° ENE 20:49:42 30° ENE 20:54:04 10° NNE
Cosmos 2084 3.3 20:46:25 10° NNW 20:50:35 89° WSW 20:51:53 45° SSE
Cosmos 2173 Rocket 3.9 20:46:36 10° S 20:52:56 75° E 20:59:16 10° N
H-2A R/B 4.1 20:55:01 14° NE 20:55:01 14° NE 20:55:59 10° NNE
USA 186 2.1 20:53:34 51° SW 20:53:56 56° W 20:56:47 10° NNW
Cosmos 1937 Rocket 3.5 20:51:20 10° N 20:56:37 64° ENE 20:58:05 45° SE
Cosmos 2297 Rocket 3.1 20:54:00 10° NNW 20:59:23 47° WSW 21:04:19 12° S
ALOS 3.4 20:56:57 10° S 21:01:22 43° W 21:05:49 10° NNW
Cosmos 2360 4.2 20:56:19 10° SSW 21:02:02 88° WNW 21:07:47 10° NNE
Cosmos 990 Rocket 4.1 20:58:57 10° N 21:04:05 53° ENE 21:04:27 52° E
Cosmos 2298 Rocket 4.4 20:59:54 10° NNW 21:05:10 64° WSW 21:08:05 26° S
ERS-1 Rocket 2.9 21:08:47 61° E 21:09:09 63° ENE 21:14:06 10° N
Cosmos 2100 Rocket 4.3 21:05:21 10° SSW 21:11:36 68° W 21:17:48 10° N
OAO 2 Rocket 3.5 21:06:53 10° WNW 21:11:50 61° N 21:12:34 55° NE
YAOGAN 11 4.0 21:11:55 77° ENE 21:11:55 77° ENE 21:16:21 10° N
Cosmos 2227 4.5 21:06:50 10° N 21:12:21 47° ENE 21:12:25 47° ENE
Meteor 1-21 4.2 21:09:03 10° N 21:14:48 64° E 21:15:22 60° ESE
Cosmos 836 Rocket 4.4 21:18:13 21° SSW 21:21:52 86° WNW 21:27:11 10° NNE
Cosmos 1939 Rocket 3.9 21:23:17 41° N 21:23:17 41° N 21:26:04 10° N
Cosmos 1743 4.1 21:20:17 23° SW 21:22:12 37° W 21:25:52 10° NNW
Cosmos 1763 Rocket 4.4 21:17:37 10° SW 21:22:31 46° WNW 21:27:24 10° N
Tiangong 1 3.8 21:20:36 10° NW 21:21:38 17° NNW 21:21:38 17° NNW
Tsikada Rocket 4.5 21:25:14 10° N 21:30:24 45° NE 21:30:24 45° NE
Cosmos 2058 Rocket 4.4 21:40:59 35° N 21:40:59 35° N 21:43:39 10° N
SL-16 R/B 2.4 21:41:42 66° N 21:41:42 66° N 21:46:35 10° NNE
Cosmos 1725 Rocket 3.8 21:42:59 88° SW 21:43:02 88° W 21:49:18 10° N
Cosmos 2098 Rocket 4.2 21:43:33 42° SSW 21:45:58 73° W 21:51:51 10° N
CZ-3 Stage 3 4.1 21:31:54 10° WNW 22:04:41 56° SW 22:05:23 55° SSW
Milstar 3 Cent rocket 4.0 21:57:14 10° W 22:17:18 65° SSW 22:18:32 62° S
Cosmos 2263 Rocket 4.1 22:16:16 10° N 22:18:16 22° N 22:18:16 22° N
Lacrosse 5 4.2 22:19:06 10° WNW 22:21:09 19° W 22:21:09 19° W
Cosmos 2322 Rocket 3.9 22:25:06 26° W 22:26:22 28° WNW 22:31:10 10° N
